Regional Weather Roundup
Issued by NWS

Home | Current Version | Previous Version | Graphics & Text | Print | Product List | Glossary On
Versions: 1 2 3 4 5 6 7 8 9 10 11 12 13 14 15 16 17 18 19 20 21 22 23 24 25 26 27 28 29 30 31 32 33 34 35 36 37 38 39 40 41 42 43 44 45 46 47 48 49 50
000
ASUS43 KLSX 220159
RWRMO

WEATHER SUMMARY FOR MISSOURI
NATIONAL WEATHER SERVICE SPRINGFIELD MO
800 PM CST SUN DEC 21 2014

NOTE: "FAIR" INDICATES FEW OR NO CLOUDS BELOW 12,000 FEET WITH NO
       SIGNIFICANT WEATHER AND/OR OBSTRUCTIONS TO VISIBILITY.
       CURRENT SKY AND/OR WEATHER CONDITIONS ARE NOT AVAILABLE FOR
       CHILLICOTHE AND FARMINGTON.

MOZ001>031-035>038-043-044-053-054-220300-
...NORTHERN AND WESTERN MISSOURI...

CITY           SKY/WX    TMP DP  RH WIND       PRES   REMARKS
KANSAS CTY INT CLOUDY    44  40  85 SE15      29.77F
KANSAS C DTWN  CLOUDY    46  40  79 SE10G17   29.79F
LEE`S SUMMIT   CLOUDY    43  39  86 S13G20    29.80F
ST JOSEPH      CLOUDY    44  41  89 S13       29.77F
CHILLICOTHE      N/A     43  40  89 SE10      29.84F
KIRKSVILLE     CLOUDY    41  40  96 SE13      29.88F

$$
MOZ066>068-077>081-088>096-101>105-220300-
...SOUTHWEST MISSOURI...

CITY           SKY/WX    TMP DP  RH WIND       PRES   REMARKS
SPRINGFIELD    CLOUDY    42  35  76 SE14      29.86F
JOPLIN         CLOUDY    45  38  76 SE8       29.83F

$$
MOZ032>034-039>042-045>050-055>058-069>072-220300-
...CENTRAL MISSOURI...

CITY           SKY/WX    TMP DP  RH WIND       PRES   REMARKS
COLUMBIA       CLOUDY    41  35  79 SE14      29.91F
JEFFERSON CITY CLOUDY    42  34  73 SE8       29.93F
ROLLA          CLOUDY    39  32  76 SE10      29.91F
SEDALIA        CLOUDY    43  36  76 SE14      29.87F
OSAGE BEACH    CLOUDY    41  34  75 SE7       29.90F

$$
MOZ051-052-059>065-220300-
...EAST CENTRAL MISSOURI...

CITY           SKY/WX    TMP DP  RH WIND       PRES   REMARKS
ST LOUIS INTL  CLOUDY    43  31  62 SE12      29.99F
SPIRIT OF STL  CLOUDY    42  32  67 VRB3      29.97F
ST CHARLES     CLOUDY    42  33  70 SE6       29.99F

$$
MOZ072>076-082>087-097>100-106>115-220300-
...SOUTH CENTRAL AND SOUTHEAST MISSOURI...

CITY           SKY/WX    TMP DP  RH WIND       PRES   REMARKS
CAPE GIRARDEAU CLOUDY    37  33  85 E3        30.02F
FARMINGTON     CLOUDY    39  34  81 E6        30.00S
POPLAR BLUFF   CLOUDY    41  35  79 NE6       30.00F
WEST PLAINS    CLOUDY    39  32  76 SE8       29.94F

$$


USA.gov is the U.S. government's official web portal to all federal, state and local government web resources and services.